Location: Bessancourt
(49.0376°N, 2.2094°E)
Time: 18:48:01
(UTC+00:00)

Daily predictions for brighter satellites

Satellite Brightness Start Highest point End
(mag) Time Altitude Azimuth Time Altitude Azimuth Time Altitude Azimuth
SL-8 R/B 4.1 18:58:30 10° SW 19:03:07 46° SSE 19:07:44 10° E
PSLV R/B 4.3 19:02:26 10° N 19:06:32 73° WNW 19:10:38 10° SSW
Cosmos 1315 Rocket 3.0 19:03:01 10° S 19:06:59 54° E 19:10:56 10° NNE
Cosmos 292 Rocket 3.9 19:02:30 10° NNW 19:07:21 63° ENE 19:12:11 10° SE
Cosmos 1833 Rocket 3.9 19:03:25 10° SW 19:08:50 49° NW 19:14:20 10° NNE
BREEZE-M DEB (TANK) 3.9 19:06:07 10° S 19:09:13 29° SE 19:16:38 10° ENE
USA 238 DEB 4.1 19:04:52 10° NW 19:12:00 63° NE 19:19:27 10° ESE
USA 238 4.1 19:04:59 10° NW 19:12:06 63° NE 19:19:33 10° ESE
Cosmos 1544 Rocket 3.5 19:09:30 10° S 19:13:55 75° E 19:18:18 10° NNE
Cosmos 1626 Rocket 3.5 19:09:52 10° N 19:14:15 68° E 19:18:36 10° SSE
DMSP B5D2-2 4.1 19:10:41 10° NNE 19:15:55 66° ESE 19:21:07 10° S
Cosmos 2360 Rocket 3.2 19:13:59 10° NNW 19:19:03 32° NE 19:24:03 10° ESE
NOSS 3-2 (A) 4.1 19:12:18 10° NW 19:19:42 79° NE 19:28:10 10° SE
NOSS 2-2 (C) 3.6 19:16:47 10° SW 19:20:12 63° NW 19:24:05 10° NE
Cosmos 1048 Rocket 4.3 19:15:38 10° S 19:20:36 46° ESE 19:25:42 10° NNE
Cosmos 1300 3.6 19:17:24 10° SSE 19:20:40 28° E 19:23:58 10° NNE
USA 32 4.1 19:19:08 10° SSE 19:24:13 56° E 19:29:21 10° NNE
NOSS 2-2 (E) 4.3 19:21:08 10° WSW 19:24:31 47° NW 19:28:26 10° NE
Resurs 01 Rocket 2.8 19:21:12 10° ESE 19:24:55 27° ENE 19:28:40 10° N
SL-16 R/B 2.3 19:19:19 10° NNW 19:24:58 64° ENE 19:30:36 10° SE
CSL-04 Rocket 4.4 19:23:12 10° S 19:28:25 55° W 19:33:38 10° NNW
Cosmos 1455 Rocket 4.1 19:24:38 10° SSW 19:28:59 51° WNW 19:33:20 10° N
CZ-4C R/B 3.1 19:26:58 10° SSE 19:30:45 23° ESE 19:35:03 10° ENE
Cosmos 1452 Rocket 3.7 19:26:38 10° NNW 19:31:56 75° WSW 19:37:12 10° SSE
SAR-Lupe-4 4.3 19:29:15 10° N 19:32:48 57° WNW 19:36:19 10° SSW
OBJECT-B 0.7 19:30:47 10° SSE 19:33:59 78° ENE 19:37:12 10° N
Cosmos 1184 Rocket 3.1 19:32:12 10° N 19:35:16 43° ENE 19:37:57 13° SE
Cosmos 1980 Rocket 3.7 19:31:31 10° NW 19:36:38 36° WSW 19:41:42 10° S
USA 215 3.4 19:32:57 11° SE 19:39:22 80° SW 19:45:57 10° WNW
Cosmos 2219 Rocket 3.7 19:36:23 10° N 19:40:49 23° NE 19:44:53 11° E
ATLAS 3B R/B 4.0 19:36:37 10° NW 19:42:38 31° NNE 19:48:51 10° E
CZ-2C R/B 3.7 19:38:16 10° N 19:43:14 49° WNW 19:48:13 10° SW
Cosmos 1464 Rocket 4.0 19:37:20 10° S 19:43:33 62° E 19:49:45 10° NNE
Meteor 1-11 4.3 19:38:28 10° N 19:44:19 83° ENE 19:50:06 10° SSE
CENTAUR R/B 3.2 19:36:52 10° NW 19:44:51 80° NE 19:52:44 14° SE
Nadezhda 4 Rocket 4.1 19:44:08 10° N 19:50:25 60° ENE 19:56:38 10° SSE
IRS-1A Rocket 4.3 19:45:31 10° SSE 19:51:03 89° ENE 19:56:43 10° NNW
SME Rocket 3.6 19:49:55 10° N 19:53:38 57° WNW 19:57:32 10° SSW
Cosmos 2237 Rocket 4.3 19:51:42 10° N 19:54:25 13° NNE 19:57:06 10° ENE
Resurs 1-3 3.5 19:51:17 10° SSE 19:55:40 80° ENE 20:00:04 10° NNW
Cosmos 1953 Rocket 4.1 19:53:25 10° N 19:57:35 39° ENE 20:00:00 21° SE
Cosmos 2333 Rocket 3.3 19:53:05 10° NNW 19:58:12 31° NE 20:01:44 17° E
In-Cosmos 22 Rocket 4.5 19:52:37 10° N 19:58:19 53° ENE 20:02:48 16° SE
Cosmos 1455 3.9 20:00:06 17° E 20:00:06 17° E 20:02:17 10° NE
MOS 1 4.4 19:55:28 10° SSE 20:01:06 80° WSW 20:06:48 10° NNW
Cosmos 2058 4.3 20:03:39 10° NNE 20:07:04 23° ENE 20:08:05 21° E
Cosmos 2026 Rocket 4.4 20:03:00 10° N 20:08:42 41° ENE 20:12:06 22° SE
Cosmos 1302 Rocket 4.2 20:04:08 10° NNW 20:09:23 58° ENE 20:12:32 24° SE
Ariane Rocket 3.4 20:06:28 10° S 20:11:29 65° WSW 20:16:32 10° NNW
ATLAS 5 CENTAUR R/B 1.4 20:08:20 10° SSW 20:12:14 57° SE 20:16:38 10° NE
SL-27 R/B 2.7 20:10:18 17° S 20:12:46 45° ESE 20:16:09 10° NNE
CZ-2C R/B 4.2 20:08:48 10° NNE 20:12:57 36° E 20:14:42 26° SE
Atlas Centaur 2 4.4 20:07:29 10° SW 20:13:09 20° S 20:16:22 16° SSE
IGS 5A 3.5 20:10:54 25° SE 20:13:11 59° ENE 20:17:17 10° N
Cosmos 2228 2.9 20:10:05 10° S 20:14:26 70° E 20:18:47 10° NNE
Cosmos 2322 Rocket 2.4 20:11:01 10° NNW 20:16:42 72° WSW 20:21:07 17° SSE
Cosmos 2322 4.4 20:12:10 10° NNW 20:17:33 41° NE 20:20:22 24° ESE
Lacrosse 5 rocket 1.7 20:14:30 10° SSW 20:18:17 40° SE 20:20:53 19° ENE
Cosmos 494 Rocket 4.0 20:13:28 10° SSW 20:18:42 84° WNW 20:24:01 10° NNE
Cosmos 1825 Rocket 3.5 20:15:46 10° N 20:20:08 85° W 20:23:15 19° S
NOSS 3-4 (A) 3.7 20:15:49 10° S 20:21:06 38° ESE 20:26:44 10° NE
NOSS 3-4 (C) 3.8 20:15:53 10° S 20:21:11 37° ESE 20:26:49 10° NE
ARIANE 5 R/B 3.4 20:19:51 28° ESE 20:21:17 35° ENE 20:25:20 10° N
Cosmos 1441 Rocket 4.1 20:18:36 10° NNW 20:22:22 48° W 20:25:51 12° S
NOSS 3-2 (C) 4.1 20:17:02 10° NW 20:24:30 78° SW 20:30:27 22° SSE
Cosmos 2082 Rocket 4.3 20:19:40 10° WSW 20:24:33 29° NW 20:29:27 10° NNE
Cosmos 1758 Rocket 4.2 20:20:27 10° NNW 20:24:47 55° W 20:28:59 11° S
Cosmos 1892 2.6 20:22:26 10° N 20:26:13 70° E 20:27:29 39° SSE
CARTOSAT-1 4.3 20:29:05 31° E 20:30:03 35° ENE 20:33:59 10° N
ATLAS 2AS CENTAUR R/B 3.4 20:27:53 10° S 20:35:00 38° ESE 20:42:03 10° NE
Cosmos 1408 2.4 20:31:50 10° N 20:35:24 67° E 20:35:58 55° SE
Lacrosse 4 Rocket 4.0 20:33:18 10° WNW 20:36:00 16° WSW 20:38:38 10° SW
COSMOS 2428 3.4 20:31:47 10° NNW 20:37:13 41° NE 20:39:28 29° E
Terra 2.9 20:40:22 26° E 20:41:12 28° ENE 20:45:13 10° N
Cosmos 1992 Rocket 4.4 20:36:44 10° NNW 20:41:47 47° ENE 20:43:22 36° ESE
SL-8 R/B 3.6 20:40:36 10° W 20:45:27 83° S 20:47:20 37° E
BREEZE-M DEB (TANK) 4.0 20:43:09 10° WSW 20:47:37 90° ESE 21:06:17 10° ENE
SPOT 1/Viking Rocket 3.5 20:47:22 35° SSE 20:49:37 84° ENE 20:54:54 10° NNW
Cosmos 1833 4.1 20:44:52 10° SSW 20:50:25 65° ESE 20:56:02 10° NNE
Cosmos 1076 Rocket 4.3 20:47:19 10° N 20:51:22 35° ENE 20:51:25 35° ENE
Cosmos 2333 4.2 20:45:39 10° NNW 20:51:28 77° ENE 20:53:35 41° SE
SPOT 3 Rocket 4.1 20:49:58 20° S 20:53:27 55° W 20:58:33 10° NNW
Cosmos 2195 Rocket 4.5 20:47:57 10° N 20:54:14 85° W 20:57:52 27° S
BREEZE-M DEB (TANK) 4.3 20:56:16 10° WSW 20:57:06 13° SW 20:57:06 13° SW
Cosmos 1092 Rocket 4.1 20:53:54 10° NNW 21:00:13 73° W 21:04:00 25° S
Cosmos 1606 Rocket 4.5 20:56:16 10° SSW 21:00:32 47° WNW 21:04:47 10° N
Resurs 01 Rocket 2.8 20:58:39 20° SSW 21:01:15 39° W 21:05:28 10° NNW
Cosmos 1825 2.0 20:57:45 10° N 21:01:31 82° ENE 21:01:31 82° ENE
USA 245 3.7 21:00:20 43° S 21:01:57 79° WSW 21:06:08 10° NNW
MetOp-B 4.5 20:59:21 28° S 21:02:10 62° WSW 21:07:30 10° NNW
Cosmos 2360 Rocket 2.7 20:57:49 10° NW 21:03:21 54° WSW 21:05:50 31° S
SL-16 R/B 4.1 21:04:11 10° NW 21:08:36 24° WSW 21:12:53 10° SSW
Cosmos 2251 Rocket 4.4 21:10:54 33° ENE 21:10:54 33° ENE 21:14:40 10° NE
Exosat Rocket 4.0 21:04:40 10° NNW 21:12:18 82° ENE 21:14:03 49° SE
Cosmos 2151 4.1 21:08:40 10° N 21:11:58 31° NE 21:11:58 31° NE
Cosmos 405 3.5 21:14:27 57° NW 21:14:27 57° NW 21:17:29 10° N
BREEZE-M DEB (TANK) 4.3 21:10:30 10° WSW 21:14:17 80° SSE 21:26:09 10° ENE
Meteor 2-10 Rocket 4.1 21:12:17 15° SSW 21:16:28 57° WNW 21:21:43 10° N
ERS-1 Rocket 2.8 21:16:15 63° SE 21:17:01 78° ENE 21:22:03 10° NNW
CZ-4C R/B 2.4 21:13:27 10° SW 21:18:29 70° NW 21:24:39 10° NE
Cosmos 2058 Rocket 3.4 21:17:40 41° SW 21:18:59 62° WNW 21:23:19 10° N
Cosmos 405 Rocket 3.1 21:17:04 10° N 21:20:35 60° NNE 21:20:35 60° NNE
Spot 2 Rocket 3.7 21:20:45 46° SSW 21:22:07 65° WSW 21:27:12 10° NNW
Meteor 2-1 Rocket 4.2 21:20:17 46° S 21:22:09 83° E 21:28:04 10° NNE
Cosmos 2219 Rocket 2.1 21:19:49 10° NNW 21:25:33 87° WSW 21:26:36 61° SSE
SPOT 5 2.5 21:30:18 84° W 21:30:18 84° W 21:34:51 10° NNW
ATLAS 3B R/B 2.8 21:27:24 10° NW 21:34:24 77° NE 21:36:24 51° ESE
Cosmos 1455 3.2 21:34:56 40° W 21:35:06 41° WNW 21:38:41 10° N
CENTAUR R/B 4.3 21:28:02 10° NW 21:35:17 35° WSW 21:39:56 21° SSW
Cosmos 2237 Rocket 2.7 21:34:35 10° NNW 21:40:02 45° NE 21:40:36 44° ENE
Cosmos 2333 Rocket 2.5 21:37:11 10° NW 21:42:51 58° WSW 21:43:45 51° SSW
Cosmos 2058 4.0 21:40:11 10° NNW 21:44:05 37° W 21:44:17 37° W
Cosmos 2279 Rocket 3.9 21:42:32 49° SSW 21:44:21 82° W 21:50:36 10° N
Cosmos 1633 4.2 21:44:40 10° N 21:46:40 31° N 21:46:40 31° N
Cosmos 1812 Rocket 4.2 21:49:50 49° NNE 21:49:50 49° NNE 21:53:10 10° NNE
Meteor 2-3 Rocket 3.8 21:44:50 10° N 21:50:38 65° ENE 21:50:46 65° E
Cosmos 1655 Rocket 3.9 21:50:21 10° N 21:56:43 88° W 21:57:32 70° S
ATLAS 5 CENTAUR R/B 3.6 21:53:31 10° W 21:57:11 28° NNW 22:01:19 10° NNE
Lacrosse 5 rocket 2.4 21:53:21 10° WSW 21:56:46 45° NW 21:56:46 45° NW
ARIANE 5 R/B 4.1 21:57:23 28° WSW 21:57:47 29° W 22:01:39 10° NW
Cosmos 2227 Rocket 4.2 22:00:48 16° ENE 22:00:48 16° ENE 22:02:18 10° NE
Cosmos-2242 4.4 22:03:15 32° NNE 22:03:15 32° NNE 22:05:42 10° NNE
Cosmos 2297 Rocket 3.8 22:09:15 23° ENE 22:09:15 23° ENE 22:11:42 10° NE
Meteor 2-21 4.5 22:02:47 10° NNW 22:08:47 67° W 22:09:26 62° SW
Cosmos 2266 Rocket 3.9 22:02:35 10° N 22:09:03 84° W 22:09:40 74° SSW
Cosmos 2344 3.4 22:01:57 10° SW 22:09:25 89° NW 22:17:32 10° NE
NOSS 3-4 (A) 4.0 22:06:00 10° WSW 22:11:45 54° NW 22:18:03 10° NE
NOSS 3-4 (C) 4.0 22:06:03 10° WSW 22:11:51 54° NW 22:18:10 10° NE
SeaSat 1 2.9 22:07:20 10° NNE 22:11:11 55° NNE 22:11:11 55° NNE
Terra 2.8 22:19:14 41° W 22:19:14 41° W 22:23:19 10° NNW
Cosmos 909 Rocket 3.9 22:18:54 83° S 22:19:08 87° SE 22:25:38 10° NE
COSMOS 2428 3.5 22:16:10 10° NW 22:21:30 41° WSW 22:21:30 41° WSW
NOSS 0 Rocket 4.0 22:15:56 10° NW 22:22:06 68° WSW 22:22:06 68° WSW
ATLAS 2AS CENTAUR R/B 3.2 22:17:48 10° SW 22:25:43 69° NW 22:33:26 10° NE
SL-16 R/B 3.0 22:22:37 10° NNW 22:28:01 41° NE 22:28:02 41° NE
Cosmos 1980 3.9 22:27:37 10° NNW 22:32:39 67° WNW 22:32:39 67° WNW
CZ-4C R/B 4.3 23:03:26 10° WNW 23:08:10 27° NNW 23:13:43 10° NE
Cosmos 2219 Rocket 4.3 23:05:29 10° WNW 23:08:20 15° W 23:08:20 15° W
USA 281 3.4 23:12:45 59° ENE 23:13:02 60° ENE 23:19:30 10° NNW
ALOS 2 4.4 23:18:29 30° NNW 23:18:29 30° NNW 23:20:46 10° NNW
Timation 2 Rocket 4.2 23:22:16 71° NNE 23:22:16 71° NNE 23:27:53 10° NNE
Cosmos 1140 Rocket 4.5 23:25:05 43° NNW 23:25:05 43° NNW 23:28:53 10° NNE
Cosmos 2237 Rocket 3.6 23:18:55 10° NW 23:22:26 30° WNW 23:22:26 30° WNW
ATLAS 3B R/B 4.0 23:18:41 10° NW 23:23:39 29° W 23:23:39 29° W
Cosmos 1818 4.4 23:28:10 48° NNW 23:28:10 48° NNW 23:32:56 10° NNE
Lacrosse 5 rocket 4.4 23:41:20 10° ENE 23:41:20 10° ENE 23:32:39 - WNW
Cosmos 2219 3.9 23:41:08 51° NNW 23:41:08 51° NNW 23:45:48 10° NNE
Cosmos 2227 Rocket 2.8 23:42:35 53° N 23:42:35 53° N 23:47:09 10° NNE
Cosmos 1745 Rocket 4.2 23:42:24 10° NNW 23:47:54 65° NW 23:47:54 65° NW
Cosmos 2297 Rocket 3.0 23:51:01 46° NW 23:51:01 46° NW 23:56:02 10° NNE
Cosmos 2263 Rocket 3.8 23:56:34 25° ENE 23:56:34 25° ENE 23:59:27 10° NE
